Location: Centerville
(32.8776°N, 96.6203°W)
Time: 09:26:57
(UTC+00:00)

Centaur D-1AR AC-39 - Visible Passes

Search period start: 28 October 2021 00:00
Search period end: 07 November 2021 00:00
Orbit: 567 x 36213 km, 21.3° (Epoch: 27 October)

Date Brightness Start Highest point End Pass type
(mag) Time Alt. Az. Time Alt. Az. Time Alt. Az.
28 Oct 6.5 07:23:50 10° SSW 12:32:19 44° SSW 17:15:46 10° ESE visible
29 Oct 7.1 05:27:36 10° SE 13:46:29 59° SSE 14:40:02 10° E visible
30 Oct 9.7 06:52:23 10° ESE 10:39:30 33° ESE 11:54:50 10° E visible
31 Oct 8.8 11:54:10 10° SW 13:16:54 16° SW 15:22:01 10° WSW visible
01 Nov 5.9 08:31:38 10° SSW 11:58:25 38° SSW 18:17:46 10° ESE visible
02 Nov 7.3 05:52:21 10° S 15:14:20 65° S 15:43:52 10° E visible
03 Nov 8.9 06:00:38 10° ESE 11:50:00 49° SE 13:04:57 10° E visible
04 Nov 9.8 07:17:38 10° ESE 09:04:32 18° E 10:02:25 10° E visible
05 Nov 5.5 09:45:54 10° SW 12:09:45 29° SW 19:19:14 10° SE visible
06 Nov 6.7 06:54:16 10° SSW 12:03:06 46° SSW 16:46:36 10° ESE visible
